Wind_Speed
69 69 69 69 69 68 67 64 63 62 60 58 56 56 56 55 55 55 54 54 54 54 54 53 53 53 53 54 56 57 57 56 54 52 51 52 52 52 51 51 49 47 46 45 45 46 46 48 49 50 51 51 51 52 53 53 52 50 49 49 51 52 52 51 48 44 42 40 39 38 39 42 47 51 53 50 44 38 33 27 23 21 20 20 21 20
66 66 66 65 65 65 64 61 61 60 60 58 57 56 56 56 55 55 55 54 54 54 54 55 55 56 57 58 59 60 61 60 58 55 53 53 53 53 52 52 50 49 48 48 48 48 49 50 51 52 52 52 52 53 53 54 53 52 52 53 53 53 52 48 45 42 40 39 37 37 40 44 49 53 54 50 44 39 34 29 25 23 22 21 21 21
62 62 62 61 62 62 62 60 59 59 58 57 57 56 57 57 57 56 56 55 55 54 55 56 58 59 60 62 63 64 64 64 61 57 54 54 54 54 54 53 53 52 52 51 51 51 52 53 54 54 54 54 54 54 54 55 55 55 55 56 55 53 49 44 41 39 38 37 36 37 41 46 51 54 54 50 45 40 35 31 27 25 23 23 22 22
61 62 61 61 61 62 62 60 59 58 57 57 57 57 57 58 58 58 57 56 56 55 56 57 59 61 63 64 65 65 65 64 60 56 54 54 55 55 56 56 56 56 56 55 55 55 55 55 55 56 56 56 56 56 56 57 57 57 58 58 55 50 45 40 38 37 37 36 36 38 43 48 52 54 54 50 46 41 37 32 28 26 25 24 23 22
61 61 61 60 61 61 60 60 59 58 57 57 57 58 59 59 59 58 58 57 56 56 57 58 60 61 63 64 63 63 61 59 56 54 54 55 56 58 58 59 59 60 60 59 59 58 58 57 57 57 57 57 57 58 58 58 59 59 59 57 53 47 41 38 37 36 36 35 35 39 44 48 52 54 53 50 47 43 38 34 29 27 25 25 24 23
57 57 56 55 56 56 56 57 57 56 56 57 57 58 58 58 58 57 57 55 54 54 55 56 57 59 59 59 58 56 54 53 52 52 54 56 58 60 61 61 62 62 61 61 60 59 58 57 57 57 56 57 57 57 58 58 58 58 57 54 50 44 40 37 36 35 34 33 35 39 45 49 52 54 53 50 47 44 40 35 30 28 26 25 24 23
50 50 49 49 49 50 51 52 53 54 54 56 56 57 57 56 55 53 51 49 48 48 49 50 51 52 53 52 50 49 48 48 49 51 53 56 58 60 60 61 60 60 59 58 57 56 55 54 53 53 53 53 54 55 55 56 56 55 53 50 46 42 39 37 35 34 32 32 34 40 46 50 54 54 53 51 48 45 41 35 31 29 27 26 25 23
45 44 44 44 45 46 47 48 49 50 52 53 54 54 53 51 48 46 44 42 42 42 42 43 44 45 45 45 44 44 45 46 48 50 52 54 56 57 57 56 55 53 52 51 50 50 49 49 48 48 48 49 50 51 51 52 52 51 49 47 44 41 38 36 34 32 31 32 35 40 46 51 55 55 54 52 50 46 41 35 31 29 28 26 24 23
41 41 41 42 42 43 43 44 45 46 48 49 49 49 47 45 42 40 38 38 37 37 37 38 39 40 41 41 41 42 43 44 46 48 50 51 52 52 51 49 48 46 45 45 45 45 44 44 44 44 45 46 46 47 48 49 48 48 46 44 42 39 37 35 33 32 31 32 35 40 46 51 55 56 55 53 51 46 41 35 32 30 28 26 24 22
39 40 40 40 40 40 40 41 41 42 43 44 43 42 41 39 38 36 36 35 35 34 34 35 36 37 37 38 38 39 40 42 43 44 45 46 45 45 44 43 42 41 41 42 42 42 42 42 42 43 43 44 45 45 46 46 46 45 44 42 40 38 36 34 33 32 31 32 35 39 45 51 55 56 56 55 52 47 41 35 31 30 28 26 24 22
39 40 40 40 39 39 39 39 39 39 39 39 39 38 37 36 36 35 35 35 34 33 33 34 34 34 35 35 36 36 37 38 39 39 40 40 40 40 40 39 39 39 40 40 40 40 40 41 41 41 42 42 43 43 44 44 43 43 42 40 38 36 35 33 32 32 32 32 34 38 43 49 53 56 56 55 52 47 41 35 31 30 28 26 23 22
39 40 40 40 39 39 39 39 38 37 37 37 37 37 37 36 35 36 36 36 35 34 34 34 34 33 34 34 34 35 35 36 36 36 37 37 37 38 38 38 38 38 38 38 38 38 38 39 39 39 40 40 40 41 41 41 41 40 39 38 36 35 33 32 33 33 32 32 33 36 41 47 52 55 56 55 52 47 41 34 31 29 28 25 23 23
39 39 39 40 40 40 40 40 39 38 37 37 38 38 38 37 36 37 37 37 36 36 36 35 35 34 34 34 34 35 35 36 36 36 36 37 37 37 38 37 37 36 36 35 35 36 36 36 36 36 36 37 37 37 37 37 37 37 36 35 34 33 32 32 33 33 32 31 32 35 39 45 50 54 56 55 52 47 40 34 31 30 28 24 23 24
40 40 40 41 41 42 42 42 41 40 40 40 40 39 39 38 37 37 37 37 37 37 37 37 36 35 35 35 35 36 37 37 37 37 37 37 37 37 36 36 35 34 33 34 34 34 33 33 33 33 33 33 33 33 34 34 34 34 33 32 32 31 31 32 34 34 32 31 32 34 39 44 49 53 54 54 51 46 40 34 31 30 27 24 25 27
43 43 43 43 44 44 44 44 43 43 42 42 41 41 40 39 38 38 38 38 38 38 38 37 36 35 35 35 35 36 37 38 38 38 38 37 37 36 35 34 33 32 32 32 32 32 32 31 31 31 30 30 30 31 31 31 31 31 31 30 30 30 31 33 34 34 33 31 32 34 38 43 48 52 53 53 50 45 39 34 32 30 28 26 27 30
46 46 46 46 45 45 45 44 44 44 44 43 43 42 41 40 39 39 39 39 39 38 37 37 36 35 35 35 35 36 37 38 38 38 37 37 36 35 34 33 32 32 32 32 32 31 31 30 30 29 29 28 28 29 29 29 30 29 29 30 30 30 31 33 34 34 32 31 32 34 38 43 47 50 52 51 48 43 38 34 32 31 29 29 30 31
47 48 48 48 47 46 45 45 45 44 44 43 43 42 41 40 40 40 40 40 39 38 37 36 35 35 35 35 35 35 36 37 37 37 37 36 35 34 33 33 32 32 32 32 32 31 30 30 29 28 28 27 27 28 28 28 28 28 29 29 30 30 31 32 33 33 32 31 32 35 38 42 46 49 51 50 46 41 36 34 32 32 31 31 31 31
45 46 47 48 48 47 46 45 44 44 43 42 41 40 40 39 40 40 40 40 39 38 37 36 36 36 36 36 36 35 35 36 36 36 36 36 35 34 33 33 33 33 32 32 32 31 30 30 29 28 28 27 27 27 27 27 27 28 28 29 29 30 30 31 32 32 31 31 33 35 39 42 46 48 49 48 44 39 34 32 32 31 32 32 32 31
42 42 43 44 44 44 43 43 42 41 40 39 39 38 38 39 39 39 40 39 39 38 38 38 38 38 37 37 37 36 35 36 36 36 36 36 35 35 34 34 34 33 33 33 32 32 31 30 29 29 28 28 27 27 27 27 27 27 27 28 28 29 29 30 30 30 30 32 34 37 40 43 45 47 48 46 41 36 33 32 31 32 33 34 33 32
39 39 39 39 40 40 40 40 39 39 38 38 37 38 38 39 39 40 40 40 39 39 39 39 39 39 38 38 38 37 36 36 36 36 36 36 36 36 35 35 34 34 34 33 33 32 32 31 30 29 29 28 28 28 27 27 27 26 27 27 27 27 28 28 28 29 30 32 35 38 41 43 45 47 46 44 39 35 32 32 33 34 35 35 34 33
39 39 38 38 38 38 38 38 38 38 38 38 38 38 39 39 40 40 41 41 40 40 40 41 40 40 39 39 39 39 37 37 37 37 37 37 37 36 36 35 35 35 35 34 34 33 32 32 31 30 30 29 29 28 28 27 27 26 26 26 26 26 26 26 26 27 29 32 35 38 41 43 45 46 45 41 37 34 33 34 36 37 37 36 36 35
39 39 39 38 38 39 39 39 39 40 40 40 40 40 40 40 40 41 41 41 41 42 42 42 41 41 41 41 41 40 39 39 39 38 38 38 38 37 36 36 36 35 35 35 34 34 33 32 32 31 31 30 30 29 29 28 27 27 26 25 25 24 24 24 24 26 28 32 35 38 41 43 44 45 43 39 36 34 34 36 38 39 39 38 37 36
40 39 39 39 39 40 40 41 41 42 42 42 42 42 42 41 41 41 41 41 42 42 42 42 42 42 42 42 42 41 40 40 40 39 39 39 38 37 37 36 36 36 35 35 35 34 34 33 33 32 32 32 31 31 30 29 28 27 26 25 24 23 23 23 23 25 28 31 34 38 41 43 44 44 41 38 35 34 34 37 39 40 40 39 38 36
43 42 41 41 41 41 41 42 43 44 44 45 45 45 44 43 43 43 42 42 41 42 42 42 43 43 43 43 43 42 42 41 41 40 40 39 38 38 37 37 36 36 36 35 35 34 34 34 33 33 33 33 32 32 31 30 29 28 26 25 23 22 22 22 23 25 28 31 34 37 41 43 44 43 40 37 34 33 34 36 39 40 41 39 38 36
45 45 45 44 44 43 43 43 43 44 45 46 46 47 46 46 45 44 43 42 41 41 41 42 42 43 43 43 43 43 42 42 41 41 40 39 38 38 37 37 36 36 35 35 34 34 34 34 34 34 34 34 33 33 32 31 30 28 27 25 23 22 21 22 23 25 28 31 34 38 41 43 43 41 38 35 33 32 34 36 39 41 41 39 38 36
48 47 47 46 46 46 45 45 44 44 44 45 46 47 47 47 47 46 45 43 42 41 40 41 41 42 42 42 42 42 42 41 41 40 40 39 38 37 37 36 36 36 35 34 34 34 34 34 34 34 34 34 34 34 33 32 31 29 27 25 23 22 22 22 23 26 29 32 35 38 40 42 42 40 37 34 32 32 34 37 40 41 41 39 37 36
51 50 49 48 47 47 47 47 46 45 45 44 45 45 46 47 47 47 46 45 43 42 41 41 41 41 41 41 41 41 41 40 40 40 39 38 37 36 36 36 36 35 35 34 34 33 33 33 33 33 34 34 34 34 34 33 31 29 27 25 24 23 22 23 24 27 30 32 35 37 40 41 40 38 36 33 32 32 35 38 41 42 41 39 37 36
57 56 54 52 50 49 49 48 48 47 46 45 45 44 45 46 46 47 47 47 45 43 43 42 42 41 41 41 41 40 40 39 39 39 38 37 37 36 36 36 35 35 34 34 33 33 33 32 32 33 33 34 34 34 34 33 31 29 27 26 24 24 24 25 26 29 31 33 35 37 39 40 39 37 35 33 32 33 36 39 42 43 42 40 37 36
61 60 60 58 56 55 53 52 50 50 49 48 47 46 46 46 47 47 48 48 46 45 45 44 43 43 42 42 41 41 40 39 39 38 38 37 37 37 36 35 35 35 34 33 33 33 32 32 32 32 33 33 34 34 33 33 31 29 27 26 25 25 26 27 29 31 34 36 37 38 39 39 39 37 35 33 33 34 37 40 43 44 43 40 38 36
60 61 61 61 61 60 59 57 55 54 53 52 50 49 49 48 48 49 49 48 48 47 47 46 45 44 43 43 42 41 41 40 39 38 37 37 37 37 36 35 35 34 33 32 31 31 32 32 32 32 33 33 33 33 33 32 31 30 29 28 28 28 29 30 32 34 36 38 39 40 40 40 39 37 35 34 33 34 37 41 43 44 43 41 39 37
60 60 60 61 62 62 61 61 60 59 57 56 55 54 53 52 51 50 50 49 49 49 48 48 46 45 44 43 43 42 42 40 38 38 37 38 38 37 36 35 34 34 32 31 30 30 30 31 31 32 32 32 32 32 33 32 32 32 32 31 32 32 33 34 35 36 38 39 40 41 41 40 39 38 36 34 34 35 38 41 44 45 44 42 39 37
61 60 60 60 61 61 61 61 61 61 61 60 59 58 57 56 54 53 52 51 50 50 49 49 48 46 45 44 43 43 42 40 39 38 37 38 38 38 36 35 35 34 32 31 31 31 30 30 31 31 31 31 31 32 32 33 34 34 34 35 35 36 36 36 37 38 39 40 41 42 42 41 40 38 36 35 34 36 38 41 44 45 44 42 40 38
63 62 62 61 61 61 60 61 61 61 61 61 61 60 60 59 57 56 54 53 52 52 51 50 49 48 46 45 44 43 42 41 40 39 39 39 39 39 37 36 36 34 33 32 32 32 32 31 31 31 31 31 31 32 32 34 35 36 37 38 38 38 38 39 39 40 40 41 42 43 43 42 41 39 37 35 35 36 39 41 43 44 44 42 40 38
65 64 63 63 62 61 61 61 60 60 60 61 61 60 60 59 58 57 56 55 54 53 53 52 51 49 48 46 45 44 43 43 42 41 40 40 40 40 39 38 37 36 35 34 34 33 33 33 32 31 31 31 32 32 33 35 36 38 39 40 41 41 41 41 41 41 40 41 42 43 43 43 42 40 38 37 36 37 39 41 43 44 44 43 41 39
65 65 65 65 64 63 63 62 61 61 61 60 60 60 59 59 58 57 56 56 55 54 54 53 52 51 50 48 46 45 44 44 43 42 42 42 42 41 40 39 38 37 36 36 36 35 35 34 33 33 32 32 32 33 34 35 37 39 41 42 43 43 43 43 42 42 41 42 42 43 43 43 43 41 40 38 38 38 40 41 43 44 44 44 42 40
63 64 65 65 65 65 64 63 63 62 61 61 60 60 60 59 58 57 57 56 55 55 54 54 53 52 51 50 49 47 46 46 45 44 43 43 43 42 41 41 40 38 38 38 38 37 36 36 35 34 34 33 33 34 35 36 37 40 42 44 45 46 46 45 44 43 43 43 43 44 44 44 43 42 41 39 39 39 40 42 43 44 45 44 43 41
58 61 62 64 64 65 65 65 64 63 62 62 61 61 60 60 59 58 58 57 56 56 55 54 54 53 52 51 50 49 48 47 46 45 44 44 43 43 42 42 41 39 39 39 39 39 38 37 37 36 35 35 35 35 35 36 38 40 42 45 47 48 48 47 47 46 45 45 45 45 45 44 44 42 41 40 40 40 41 42 43 44 45 44 43 42
52 55 57 59 61 63 64 65 65 64 64 63 62 62 61 61 60 60 59 59 58 57 57 56 55 54 53 51 50 49 49 48 47 46 45 44 44 43 43 43 41 40 40 40 40 40 40 39 38 38 37 36 36 36 36 36 38 40 42 45 47 49 50 50 49 48 48 47 47 46 46 45 45 43 42 41 41 41 41 43 44 45 45 45 44 42
44 46 49 52 55 57 60 62 63 64 64 64 64 63 63 62 62 61 60 60 59 59 59 58 57 56 54 53 51 50 50 49 48 47 46 45 44 44 43 43 42 41 40 40 41 41 41 41 40 39 38 37 37 37 37 37 38 39 41 44 47 49 51 51 51 51 50 49 48 48 47 47 46 44 43 42 41 41 42 43 44 44 45 45 44 43
36 38 40 43 46 49 52 56 59 61 62 63 64 64 64 63 62 62 61 61 60 60 60 59 59 58 56 55 53 52 51 51 50 49 47 46 45 44 44 43 42 41 39 40 41 42 42 41 40 39 38 38 37 37 37 38 39 40 41 44 48 50 51 52 53 53 52 51 50 50 49 48 47 46 44 43 42 41 42 42 43 44 44 44 43 42
32 33 34 36 38 40 44 48 51 55 57 60 62 63 63 63 63 63 62 62 61 60 60 60 60 60 59 57 56 54 53 52 51 50 48 47 46 45 44 44 43 41 40 40 40 41 41 41 40 39 39 38 38 38 38 38 39 40 42 44 47 49 51 53 54 54 54 53 52 51 51 50 48 47 45 43 42 41 41 42 43 44 44 44 43 42
31 31 31 31 32 33 36 40 43 46 50 53 56 59 61 62 63 63 63 62 62 61 60 60 60 60 60 59 58 57 56 55 53 52 50 49 47 46 46 45 44 42 41 40 40 40 40 40 40 39 39 39 38 38 38 38 39 40 41 43 46 48 51 54 55 55 56 55 54 53 52 51 50 48 46 44 43 42 42 42 43 44 45 44 44 43
31 31 31 30 30 30 32 34 36 39 42 46 50 54 57 59 60 62 63 63 63 62 61 60 60 60 60 60 60 59 58 57 55 54 52 50 49 48 47 46 45 44 42 41 41 41 40 40 40 40 39 39 39 39 38 38 39 40 41 43 46 49 53 55 56 57 57 57 56 55 54 53 51 49 47 45 43 42 42 43 44 45 45 45 44 43
31 30 30 30 30 30 30 30 32 34 37 40 44 47 51 53 56 58 60 62 62 63 62 61 60 60 60 60 61 61 60 59 58 56 54 53 51 50 49 48 47 46 44 43 42 42 41 41 41 41 40 40 40 39 39 39 39 40 41 43 46 50 53 55 56 57 58 58 57 56 55 54 52 50 48 45 44 43 43 43 44 45 46 46 45 44
30 30 30 29 28 28 28 28 30 31 33 36 39 42 45 48 51 53 56 58 60 61 62 61 60 59 60 60 61 61 61 61 60 58 57 55 53 52 50 50 49 48 46 45 44 43 43 42 42 42 42 41 41 40 40 39 39 40 41 44 46 49 52 54 56 58 59 58 58 57 56 55 52 50 47 45 44 43 43 44 45 46 46 46 45 44
31 30 29 28 27 27 27 27 27 28 30 32 35 38 40 43 45 48 52 54 56 58 61 61 60 60 60 60 61 61 61 61 61 60 59 57 55 54 52 51 50 49 48 46 45 44 44 43 43 43 43 43 42 42 41 40 40 41 42 44 47 50 52 55 57 58 59 59 59 58 56 55 52 50 47 45 43 42 42 44 45 46 46 46 45 44
31 30 30 29 28 27 26 25 24 25 27 30 33 34 36 37 40 43 47 50 52 55 57 59 60 60 60 60 60 60 61 61 62 61 60 59 57 55 54 53 51 50 49 47 46 45 44 44 44 44 45 44 44 43 42 41 41 41 43 45 47 50 53 55 57 59 60 60 59 58 57 54 52 49 47 44 42 41 42 43 45 46 46 46 45 44
31 31 31 30 29 28 26 24 23 23 25 28 30 32 33 34 36 39 42 45 48 50 53 55 58 59 60 60 60 60 60 61 62 62 61 60 59 57 55 54 52 51 49 48 46 45 45 45 45 46 46 45 45 44 43 42 42 42 43 45 48 51 53 55 56 58 60 60 60 59 57 54 51 49 46 43 41 41 42 43 45 46 47 46 45 44
32 32 32 31 31 30 28 25 23 22 24 26 29 31 32 33 35 37 39 41 44 46 48 51 54 56 58 59 60 60 60 60 61 61 61 61 60 58 56 55 53 52 50 49 48 47 47 47 47 47 46 46 45 44 43 42 42 42 43 45 48 51 53 55 56 58 60 61 61 59 57 54 51 48 45 42 41 40 41 43 45 46 47 46 45 44
32 33 33 33 32 31 30 28 25 23 23 25 28 30 32 34 35 37 38 40 41 43 44 47 49 52 55 57 59 59 59 59 60 61 61 61 60 59 57 56 54 53 51 50 50 49 49 48 48 48 48 47 46 45 44 43 42 42 43 45 48 52 54 54 55 57 60 61 61 59 57 55 52 49 45 42 40 40 41 43 45 46 46 46 45 43
33 33 34 34 33 33 32 30 28 25 24 25 27 30 33 35 36 38 39 39 40 41 43 44 46 49 52 55 56 57 58 59 59 60 61 61 61 59 58 57 56 54 53 53 52 51 50 50 49 49 48 48 47 46 45 44 43 43 43 45 48 51 54 54 54 56 59 61 61 60 57 55 53 50 46 43 41 40 41 43 45 46 46 46 45 43
Wind_Direction
254 256 259 260 261 262 263 264 265 265 265 265 263 261 258 256 254 253 254 256 257 256 256 256 257 258 259 259 260 260 261 263 264 265 264 264 264 264 265 266 266 265 265 265 266 267 268 270 271 273 274 275 275 276 277 278 280 282 284 285 287 288 289 289 286 283 280 279 279 280 282 282 281 277 272 268 267 268 268 259 245 235 238 245 251 255
257 259 260 261 262 263 264 265 265 265 265 265 264 262 260 258 256 255 256 257 258 257 257 256 256 257 257 258 259 260 261 263 264 264 262 262 262 262 263 264 264 264 264 264 266 267 269 270 272 273 274 274 275 275 276 277 279 281 282 283 285 286 286 285 282 280 277 276 277 279 280 279 277 274 269 266 265 266 265 257 244 232 231 236 243 249
260 261 262 263 264 265 266 266 266 266 265 265 264 263 262 261 259 259 260 260 260 259 258 257 256 257 257 258 259 260 261 263 264 262 260 259 259 260 261 262 262 263 264 265 266 267 268 270 271 272 272 273 273 273 274 275 277 278 279 281 282 283 282 280 277 275 273 273 275 277 278 277 274 271 267 264 264 264 263 256 244 233 229 232 237 242
262 263 264 265 266 266 267 267 267 266 266 265 265 264 264 264 263 264 265 265 264 262 259 258 258 258 258 259 260 261 262 263 262 260 256 255 256 257 258 259 260 262 263 264 265 265 266 267 269 269 270 270 271 271 272 273 274 276 277 278 279 279 277 275 272 271 269 271 274 276 277 275 273 270 266 264 263 263 261 256 246 235 230 231 234 238
264 264 265 265 265 266 266 267 267 266 266 266 266 266 266 267 268 269 269 269 267 264 262 260 259 259 260 260 261 261 261 261 259 256 252 252 252 254 255 257 259 260 262 262 263 264 264 265 266 267 267 268 269 269 270 271 272 273 275 276 276 276 273 271 268 266 266 269 274 276 276 274 272 269 265 263 262 261 260 256 248 238 232 231 232 235
263 263 263 263 263 263 264 265 265 265 266 266 266 267 268 269 270 271 271 270 268 266 264 262 261 260 260 260 260 259 258 257 254 251 249 249 250 252 255 257 259 260 261 262 262 263 263 264 264 265 266 267 267 268 269 270 271 272 272 273 273 272 270 268 265 264 265 269 274 276 275 273 270 267 264 262 261 260 259 256 249 240 234 232 232 234
260 260 260 260 261 261 262 263 263 264 265 266 267 267 268 269 270 270 269 268 267 265 264 262 260 258 257 257 256 255 254 252 251 250 249 250 251 254 256 258 260 261 261 261 261 262 263 264 264 265 266 266 267 267 268 269 269 270 270 270 270 269 268 265 263 262 265 270 274 275 273 271 267 264 261 260 259 259 258 257 252 243 236 233 232 232
256 257 257 258 259 260 260 261 262 262 263 264 265 266 267 267 267 266 265 264 263 262 261 258 256 255 254 253 253 252 252 251 251 251 252 253 255 257 258 259 260 260 260 260 261 262 263 264 265 265 266 266 266 266 267 267 267 267 266 266 266 266 265 263 262 263 266 270 272 272 271 268 265 262 259 259 258 258 258 258 254 246 237 233 231 232
255 256 257 259 259 259 260 260 260 260 260 261 262 262 263 263 262 261 260 259 259 258 256 255 253 252 252 251 251 251 252 252 252 253 254 255 256 257 258 258 258 259 259 260 261 263 264 264 265 265 265 265 265 265 265 264 264 263 263 262 262 262 262 261 261 262 264 267 268 268 267 266 264 261 259 259 258 258 259 259 254 246 237 232 229 231
256 258 259 259 259 259 260 259 259 258 257 257 257 257 258 258 258 257 257 257 256 255 254 253 252 252 251 251 251 251 251 252 253 253 254 255 255 256 256 257 257 258 259 260 261 263 264 264 265 265 265 264 264 263 262 262 261 260 259 259 258 258 258 258 258 260 261 262 263 264 264 263 262 260 259 259 259 259 259 259 254 246 236 229 226 229
258 259 259 258 259 259 260 259 257 255 253 253 253 253 254 255 256 257 257 257 256 255 253 252 252 251 251 250 250 250 251 251 251 252 252 253 254 254 255 256 257 258 259 260 261 262 263 264 264 264 264 263 262 261 260 259 258 257 256 255 255 254 254 254 256 257 257 258 259 260 261 261 260 259 259 259 259 259 260 258 252 242 232 225 223 227
258 257 256 256 256 258 259 258 255 253 251 251 252 253 254 255 256 258 259 259 258 257 256 254 252 251 250 251 251 251 251 251 251 251 251 252 253 254 255 256 257 257 258 260 261 262 263 264 264 263 262 262 260 259 258 257 255 254 253 252 251 251 251 252 253 254 254 254 255 257 258 259 259 258 258 258 259 259 259 257 249 238 228 221 220 226
254 253 253 252 253 255 257 257 256 254 253 253 254 256 257 258 259 259 260 260 260 259 258 256 254 252 251 251 252 253 253 253 252 252 252 252 253 254 255 256 257 258 259 260 262 263 263 263 263 262 261 260 259 257 256 254 253 251 250 250 249 249 250 251 253 253 252 251 252 254 256 257 258 257 257 258 258 259 259 254 244 233 223 216 217 226
250 250 250 250 251 253 254 256 256 256 256 256 257 258 259 260 260 260 260 260 260 260 259 258 255 253 252 252 253 254 255 255 254 253 253 253 254 255 256 257 258 259 260 261 262 263 263 262 262 261 260 259 257 256 254 253 251 250 249 248 248 249 250 252 253 252 251 250 250 252 254 256 256 257 257 257 258 258 258 251 240 228 218 211 215 224
249 248 248 249 249 251 252 254 255 256 256 257 258 258 258 258 258 258 258 258 258 258 258 257 255 254 253 253 254 255 255 255 255 255 254 255 256 257 257 258 259 259 261 262 262 262 262 261 261 260 259 258 256 255 253 252 250 249 248 248 249 250 251 253 253 253 251 250 249 251 253 254 255 256 256 256 257 257 256 249 236 223 212 209 215 222
248 248 248 248 249 249 251 252 253 254 254 255 256 256 256 256 256 256 257 257 257 257 256 256 255 255 255 255 255 256 256 256 256 256 256 256 257 257 257 257 258 259 260 261 261 261 260 260 260 259 258 257 255 254 253 251 250 249 248 248 249 250 252 253 254 253 252 250 249 250 252 253 254 255 255 255 256 256 254 244 232 219 210 209 215 220
249 248 248 248 249 249 250 251 251 252 253 254 254 255 255 255 256 257 257 257 256 256 256 256 256 257 258 257 257 257 257 258 257 257 257 257 256 256 255 255 256 258 259 260 260 259 259 259 259 259 258 256 255 254 253 252 251 250 249 249 249 250 251 253 253 253 251 249 248 249 251 252 253 253 254 254 255 254 249 238 226 216 211 212 215 219
251 250 250 250 249 250 250 251 251 252 253 253 254 255 256 256 257 257 257 256 256 255 256 257 258 259 260 260 259 258 258 258 258 257 257 256 255 254 253 254 256 257 258 258 258 258 258 259 259 259 258 256 255 254 253 252 252 252 251 251 250 250 250 251 252 251 249 248 247 248 250 251 252 252 252 253 252 250 242 231 221 215 213 215 217 218
254 253 252 251 251 251 251 251 252 252 253 254 254 255 255 256 256 256 255 255 254 254 255 257 258 260 260 260 260 259 258 257 257 256 255 255 254 253 252 253 255 257 257 257 256 256 257 258 259 259 258 257 256 255 254 254 254 254 254 253 252 251 250 250 249 248 247 246 246 247 248 250 250 251 251 251 250 245 235 224 216 214 216 218 218 218
254 254 253 253 252 251 250 250 251 251 252 253 253 254 253 254 254 253 253 253 253 253 254 255 257 258 259 259 258 258 256 255 254 254 253 252 252 251 252 254 255 257 257 256 255 255 256 257 258 259 259 258 257 256 256 256 256 256 256 256 254 252 250 248 246 245 244 244 245 246 247 248 249 250 250 249 247 241 230 219 214 215 218 219 218 218
251 252 253 253 252 251 249 249 249 249 249 250 250 250 250 250 250 250 250 250 250 250 251 253 254 255 255 255 255 255 255 253 252 251 251 251 250 251 252 254 256 257 256 254 254 253 254 256 257 258 259 258 258 258 257 257 258 258 258 257 255 252 248 245 243 243 243 244 245 246 247 248 248 249 249 248 245 238 230 222 218 218 219 219 218 218
244 247 249 251 251 251 249 248 247 247 247 247 247 247 246 246 246 246 246 246 247 247 249 250 251 252 252 252 252 253 253 252 251 250 250 250 250 251 253 255 256 256 255 253 252 252 253 255 256 257 258 258 258 258 258 258 258 258 258 257 254 250 246 242 241 241 242 244 245 246 247 248 248 248 248 247 244 240 236 231 227 223 220 219 218 218
234 237 241 244 247 249 249 248 247 246 246 245 245 245 244 243 243 243 243 244 245 246 248 249 250 250 250 250 251 251 251 251 251 250 250 249 250 251 253 255 255 255 253 251 250 251 252 253 254 256 257 257 257 257 257 257 257 258 257 256 253 249 244 240 239 240 241 243 245 246 247 248 248 249 248 247 246 244 242 238 233 227 222 219 218 218
229 231 233 235 239 242 245 247 247 246 245 244 244 243 243 242 242 242 242 243 245 246 247 249 249 250 249 249 250 250 250 250 250 250 250 250 251 252 253 254 254 253 251 249 249 249 250 252 253 254 255 256 256 256 256 256 256 256 255 254 251 247 243 239 238 239 241 243 244 245 246 247 248 248 248 248 248 247 244 240 235 229 223 220 218 218
230 230 230 231 232 235 237 240 243 244 245 244 243 242 242 242 242 242 243 243 245 246 247 248 249 249 249 249 249 249 250 250 250 250 250 250 251 252 252 252 252 251 249 248 247 248 249 250 252 253 254 255 255 255 255 255 254 254 253 251 249 246 242 239 238 239 240 242 243 244 244 245 246 246 247 248 249 248 244 239 234 228 223 219 218 217
235 233 232 231 231 231 232 234 236 238 241 242 243 242 241 241 241 242 242 243 243 244 245 246 247 248 248 248 248 248 248 249 249 249 250 250 250 250 251 250 250 249 247 247 246 247 248 249 250 251 252 253 254 254 254 254 253 252 251 250 248 245 242 240 239 240 241 242 243 244 244 244 244 245 246 248 249 247 243 238 232 227 222 219 217 217
241 240 238 236 235 233 232 231 232 233 235 237 239 240 241 241 241 241 242 242 242 241 241 242 243 244 245 245 245 245 246 247 248 248 249 249 248 248 248 248 248 247 246 246 246 246 247 248 249 250 251 252 253 253 253 253 252 251 250 249 248 245 243 241 240 241 242 243 245 245 245 244 244 244 246 248 249 247 241 236 231 226 221 218 217 216
247 246 245 243 242 239 237 235 233 232 232 233 235 236 238 239 240 240 240 240 239 238 237 237 238 240 241 242 242 243 243 244 246 247 248 247 246 246 245 246 245 246 245 246 246 246 247 247 248 249 249 250 251 251 252 251 251 250 249 248 246 245 243 242 241 242 243 245 246 246 245 244 244 244 246 248 249 246 240 234 229 225 221 218 217 216
249 249 248 248 247 246 244 242 239 237 236 235 235 235 236 237 238 239 239 238 237 236 235 235 235 236 237 238 239 240 241 242 244 246 246 246 245 244 244 243 244 244 245 245 246 246 247 247 247 248 248 248 249 249 249 249 248 247 246 244 243 242 241 240 240 241 243 245 246 246 245 244 243 244 246 248 249 245 239 233 228 225 221 219 218 217
250 249 249 249 249 248 247 246 245 243 242 240 240 239 239 239 239 239 239 238 236 236 235 234 234 234 234 235 236 237 238 240 243 245 246 245 245 244 243 243 243 244 245 245 246 246 247 247 247 247 247 246 246 246 246 246 245 243 241 239 238 238 238 238 239 240 241 243 245 245 244 243 243 244 246 248 248 245 239 233 228 225 222 221 220 219
250 249 249 249 248 248 248 247 247 246 245 245 244 244 244 244 243 243 242 240 238 237 236 235 234 234 234 234 235 236 237 239 241 243 245 245 245 244 243 243 243 244 244 245 245 246 247 247 247 247 246 245 244 243 243 243 242 240 238 236 235 234 235 236 237 238 239 241 243 243 243 243 243 244 246 248 248 244 238 233 229 226 224 222 221 220
250 250 249 249 248 248 248 247 247 246 246 246 245 246 246 246 246 246 245 244 242 241 239 238 237 236 235 235 235 236 238 238 240 241 243 244 245 245 244 243 243 243 243 244 244 245 246 246 246 246 245 243 241 240 240 239 239 238 237 235 234 234 234 234 235 237 238 239 240 241 241 242 243 244 246 248 247 243 238 233 229 226 225 223 222 221
250 250 249 249 249 249 248 248 247 247 246 246 245 245 246 246 246 247 247 246 246 244 243 242 241 240 239 237 237 237 238 239 239 239 241 243 244 244 243 243 243 243 243 243 243 244 244 244 245 244 243 242 239 237 236 236 235 235 235 235 234 234 234 234 235 236 237 238 239 239 240 241 242 244 246 247 246 243 237 233 229 227 225 224 222 221
250 250 249 249 249 249 248 248 248 247 247 246 246 245 245 245 245 246 246 246 246 246 246 245 245 244 243 242 240 239 239 239 239 239 239 241 243 243 243 242 242 242 242 242 242 242 242 243 243 243 242 241 238 236 234 233 233 233 233 234 234 234 235 235 236 236 237 237 238 239 240 241 242 243 245 247 246 243 238 233 229 227 225 224 223 221
252 251 250 249 249 249 248 248 248 247 247 247 246 246 246 245 245 245 245 245 245 246 246 246 246 246 246 246 244 243 242 241 241 240 240 240 241 242 242 242 241 242 242 242 242 241 241 241 241 241 241 240 238 236 234 233 232 232 232 233 233 234 235 236 237 237 237 238 238 239 240 241 242 244 246 247 247 244 239 234 230 227 225 224 223 222
255 253 252 251 250 249 248 248 247 247 247 247 247 246 246 246 245 245 244 244 244 244 245 245 245 246 246 247 247 246 245 243 242 241 240 240 240 241 241 241 241 241 242 242 241 240 239 239 240 240 240 240 238 237 235 234 233 232 232 232 232 233 234 236 237 237 238 238 239 239 241 242 243 245 246 248 247 244 240 235 230 227 225 224 223 222
260 258 255 254 252 251 250 249 248 247 247 246 246 246 246 246 245 245 244 244 243 243 243 244 244 244 245 246 246 246 245 244 243 241 240 239 239 240 240 240 239 240 241 242 241 239 237 237 237 238 239 239 239 238 236 235 233 232 232 232 232 232 233 234 235 236 237 238 239 240 241 242 243 244 246 247 246 244 240 235 231 227 225 224 223 222
265 263 260 258 256 254 252 251 250 249 248 247 247 246 246 245 245 244 244 243 243 243 243 243 243 243 243 244 244 244 244 244 242 241 239 238 238 238 239 239 238 239 240 241 240 238 236 235 235 236 237 238 238 238 238 236 234 233 233 233 233 233 233 234 235 235 236 236 238 239 240 241 242 243 244 245 244 242 239 235 231 228 225 224 223 221
270 268 265 263 261 258 256 254 252 251 250 249 248 247 246 246 245 244 244 243 243 242 242 242 242 242 241 241 241 242 242 242 241 240 238 238 237 237 237 237 237 238 238 239 239 238 236 235 234 235 236 237 238 238 238 237 236 235 234 234 233 233 233 234 234 235 235 235 236 237 238 240 240 241 242 243 243 241 238 235 232 229 226 224 223 221
276 273 270 267 264 262 259 257 255 253 252 250 249 248 247 247 246 245 244 243 243 242 242 241 241 241 240 240 239 239 240 240 240 239 238 237 236 235 235 236 235 236 236 237 238 237 236 235 234 235 236 237 239 239 239 238 236 235 234 234 233 233 233 233 234 234 234 235 235 236 237 238 239 240 240 241 242 241 239 236 232 229 227 225 223 221
282 279 275 271 268 265 262 259 257 255 254 252 251 250 249 248 247 246 245 244 243 242 242 241 241 240 240 239 238 238 238 238 238 238 237 236 235 234 234 234 233 233 233 235 236 237 236 235 235 235 236 237 238 239 239 239 238 236 235 234 234 234 234 234 234 234 234 234 235 235 236 237 238 238 239 240 241 241 239 235 231 228 226 224 223 221
288 284 280 276 272 268 264 261 259 257 255 254 252 251 250 249 249 248 247 245 244 242 242 241 241 240 240 239 238 237 237 237 237 237 236 235 234 233 233 232 231 231 231 232 235 236 236 236 236 236 236 237 238 239 239 239 239 238 236 235 235 234 234 233 233 233 233 233 234 234 235 236 236 237 238 239 239 239 237 233 230 227 224 223 222 221
293 289 286 283 278 273 268 265 261 258 256 254 252 251 250 250 249 248 248 247 245 244 242 241 241 240 240 239 238 237 236 236 236 236 235 234 234 233 232 232 230 229 228 230 234 236 237 237 237 237 237 238 239 239 240 240 239 238 237 235 234 233 232 232 232 232 232 232 233 233 234 234 235 235 236 237 238 238 235 232 228 226 224 223 222 221
301 298 295 290 285 280 275 270 265 260 256 253 251 250 249 249 248 248 248 247 246 245 243 242 241 241 240 239 238 237 236 236 235 235 235 234 233 232 232 231 230 228 227 229 233 236 238 238 238 238 239 239 239 240 240 240 240 239 237 236 234 233 232 232 232 232 231 231 232 232 233 233 233 234 235 236 236 236 234 231 228 225 224 222 222 221
308 306 303 299 294 288 282 275 269 263 259 255 252 249 248 247 247 246 246 246 246 246 245 243 242 242 241 239 238 237 236 235 235 235 234 233 233 232 232 231 230 228 227 228 231 236 239 240 240 240 240 240 240 240 240 240 240 239 238 236 234 233 232 232 232 232 231 231 231 231 231 232 232 232 233 234 235 234 233 230 227 225 223 223 222 221
309 308 307 305 302 297 290 282 275 268 263 258 254 250 248 247 246 245 244 244 244 244 244 244 243 242 241 240 239 237 236 235 235 234 234 233 232 232 231 231 230 229 228 228 230 234 238 240 240 240 240 241 241 241 240 240 240 239 238 236 234 231 230 229 230 230 231 231 231 231 230 231 230 231 231 233 234 234 232 229 226 224 223 223 222 222
307 307 307 307 305 302 297 290 282 273 266 260 256 252 250 250 248 247 245 244 243 242 242 243 243 242 241 241 239 238 236 235 234 234 234 233 232 232 231 230 230 229 228 228 230 233 237 239 240 240 240 241 241 241 240 240 240 239 238 236 233 230 228 227 227 228 229 230 230 230 230 230 230 230 231 232 233 233 230 228 226 224 223 223 222 222
305 305 305 305 304 302 300 294 286 276 267 261 256 253 251 250 250 250 249 246 244 242 241 241 241 241 241 241 240 238 237 236 235 234 233 233 232 232 231 230 229 228 228 228 229 232 235 237 238 239 240 240 241 241 241 240 240 240 239 236 233 230 227 226 226 226 227 228 229 229 230 230 230 230 230 232 232 231 229 227 225 224 223 223 222 222
303 303 302 302 301 301 299 295 288 279 270 262 256 252 249 247 246 247 248 248 247 244 241 240 239 239 240 240 239 239 237 236 235 234 233 233 232 231 230 229 228 227 226 227 228 230 232 234 236 237 238 239 239 240 240 240 240 240 239 236 233 229 226 224 223 224 225 226 227 228 228 229 229 230 231 232 232 231 229 227 225 224 223 223 222 222
300 300 299 299 298 298 297 295 290 283 273 263 256 251 248 245 243 243 244 245 246 245 243 241 240 239 239 239 239 238 237 236 235 234 233 233 232 231 230 228 227 226 225 226 227 228 230 232 233 235 236 236 237 237 238 238 238 238 237 235 232 228 224 221 221 221 223 224 225 226 227 227 228 229 230 231 231 230 228 226 225 224 223 222 222 221
298 297 296 296 295 295 295 294 291 285 276 265 256 250 247 245 244 243 242 242 242 242 242 241 240 239 238 238 238 237 237 236 235 234 233 232 231 231 229 228 226 225 224 225 226 227 229 230 231 232 233 234 235 235 236 236 236 236 235 233 231 228 223 219 218 219 220 222 223 224 225 226 227 228 228 229 229 228 227 225 224 223 222 222 221 220
Height
3033 3033 3033 3034 3035 3037 3038 3040 3041 3041 3042 3044 3046 3047 3049 3051 3053 3054 3055 3057 3058 3059 3060 3061 3062 3063 3063 3064 3065 3065 3066 3067 3067 3068 3068 3069 3069 3069 3070 3070 3070 3070 3070 3070 3070 3070 3070 3071 3071 3071 3072 3072 3073 3073 3073 3074 3074 3075 3075 3075 3076 3077 3077 3077 3077 3077 3077 3077 3077 3077 3078 3077 3077 3078 3078 3079 3079 3080 3080 3080 3081 3082 3084 3085 3086 3087
3030 3030 3030 3030 3031 3032 3033 3035 3037 3038 3038 3040 3041 3043 3045 3046 3048 3050 3051 3052 3053 3055 3055 3057 3058 3059 3059 3060 3061 3061 3062 3063 3064 3065 3065 3065 3065 3066 3066 3066 3067 3067 3067 3067 3067 3067 3067 3067 3068 3068 3068 3069 3069 3070 3070 3070 3071 3072 3072 3073 3074 3075 3075 3075 3075 3075 3074 3074 3075 3075 3075 3075 3075 3075 3076 3076 3077 3077 3078 3078 3079 3080 3080 3082 3083 3085
3026 3027 3027 3027 3027 3028 3029 3031 3032 3034 3035 3036 3037 3039 3040 3041 3043 3045 3046 3047 3049 3050 3051 3052 3053 3054 3055 3055 3056 3057 3058 3059 3060 3061 3062 3062 3062 3062 3063 3063 3063 3063 3064 3064 3064 3064 3064 3064 3064 3065 3065 3065 3066 3066 3067 3067 3068 3069 3070 3070 3070 3072 3072 3072 3072 3072 3072 3072 3072 3073 3074 3073 3072 3073 3074 3074 3075 3075 3075 3076 3076 3077 3078 3079 3080 3082
3023 3023 3023 3025 3025 3025 3025 3027 3028 3030 3031 3033 3034 3035 3036 3036 3038 3039 3041 3042 3043 3045 3046 3047 3048 3049 3049 3050 3051 3052 3053 3055 3055 3057 3058 3058 3059 3059 3059 3059 3059 3060 3060 3060 3060 3060 3061 3061 3061 3061 3062 3062 3063 3063 3064 3064 3065 3065 3066 3067 3068 3069 3069 3069 3069 3069 3069 3069 3070 3070 3071 3070 3070 3070 3071 3072 3072 3073 3073 3074 3074 3075 3076 3076 3078 3080
3019 3019 3020 3022 3022 3022 3022 3024 3025 3026 3027 3029 3030 3030 3031 3032 3033 3034 3036 3037 3039 3040 3040 3042 3043 3044 3044 3045 3046 3047 3049 3050 3051 3052 3053 3054 3055 3055 3055 3055 3055 3056 3056 3056 3056 3057 3057 3057 3057 3058 3058 3059 3059 3060 3060 3061 3061 3062 3063 3064 3064 3065 3066 3066 3066 3066 3066 3067 3067 3068 3068 3067 3067 3068 3069 3070 3070 3070 3071 3071 3072 3073 3074 3075 3076 3077
3015 3016 3017 3019 3019 3019 3020 3020 3021 3022 3023 3024 3025 3026 3027 3028 3029 3030 3031 3033 3034 3035 3036 3037 3038 3039 3039 3040 3041 3042 3044 3045 3046 3047 3048 3049 3050 3051 3051 3051 3052 3052 3052 3052 3052 3053 3053 3053 3054 3054 3054 3055 3055 3056 3057 3057 3058 3059 3059 3060 3061 3062 3063 3063 3064 3064 3064 3065 3065 3065 3066 3065 3065 3066 3066 3067 3067 3068 3068 3069 3070 3071 3072 3073 3074 3075
3011 3012 3014 3015 3015 3016 3017 3018 3018 3019 3020 3020 3021 3022 3023 3024 3025 3026 3027 3028 3030 3030 3031 3032 3033 3034 3035 3035 3037 3038 3039 3040 3041 3043 3044 3045 3046 3047 3047 3048 3048 3048 3048 3048 3048 3048 3049 3049 3049 3050 3050 3051 3052 3052 3053 3054 3054 3055 3056 3056 3058 3059 3059 3060 3060 3061 3061 3062 3062 3063 3064 3063 3063 3064 3064 3064 3064 3065 3066 3067 3068 3069 3070 3070 3072 3073
3008 3009 3010 3011 3011 3013 3014 3014 3015 3015 3016 3017 3018 3019 3020 3021 3022 3023 3024 3025 3025 3026 3027 3028 3028 3029 3030 3031 3033 3034 3035 3036 3038 3039 3040 3041 3042 3043 3043 3044 3044 3044 3044 3044 3044 3044 3045 3045 3045 3046 3047 3047 3048 3049 3049 3050 3050 3051 3052 3053 3054 3055 3056 3057 3057 3058 3059 3059 3060 3060 3061 3061 3061 3062 3062 3062 3062 3062 3063 3065 3066 3067 3068 3069 3070 3071
3005 3006 3007 3007 3008 3009 3010 3010 3011 3013 3014 3015 3015 3016 3017 3018 3019 3020 3020 3021 3021 3022 3023 3024 3025 3025 3027 3028 3029 3030 3032 3033 3034 3035 3037 3038 3039 3039 3039 3040 3040 3040 3040 3040 3040 3040 3040 3041 3042 3042 3043 3044 3045 3045 3045 3046 3047 3047 3048 3049 3050 3051 3052 3053 3054 3055 3055 3056 3057 3057 3058 3059 3059 3060 3060 3060 3060 3060 3061 3063 3064 3065 3066 3067 3068 3070
3003 3004 3004 3005 3005 3006 3007 3007 3008 3009 3010 3011 3012 3013 3014 3014 3015 3016 3017 3017 3018 3019 3020 3020 3021 3022 3024 3025 3026 3027 3029 3030 3031 3032 3033 3034 3035 3035 3035 3035 3036 3036 3036 3036 3036 3037 3037 3038 3038 3039 3040 3040 3041 3041 3042 3042 3043 3044 3044 3045 3046 3048 3049 3050 3050 3052 3052 3053 3054 3054 3055 3056 3057 3058 3058 3057 3057 3058 3059 3060 3062 3063 3064 3065 3067 3068
3001 3001 3002 3003 3003 3003 3004 3004 3005 3006 3007 3008 3009 3010 3010 3011 3012 3012 3013 3014 3015 3016 3017 3018 3019 3020 3020 3022 3023 3025 3025 3027 3028 3029 3030 3030 3031 3031 3032 3032 3032 3033 3033 3033 3033 3034 3034 3035 3035 3035 3036 3037 3037 3038 3038 3039 3039 3040 3041 3042 3043 3044 3045 3046 3047 3048 3049 3050 3051 3051 3052 3054 3055 3055 3055 3055 3055 3056 3057 3058 3060 3061 3062 3064 3065 3067
2998 2999 3000 3000 3001 3001 3002 3002 3002 3003 3005 3005 3006 3006 3007 3008 3009 3010 3010 3010 3012 3013 3014 3015 3015 3017 3018 3019 3020 3021 3022 3023 3024 3025 3026 3027 3027 3028 3028 3029 3029 3029 3030 3030 3030 3030 3031 3031 3032 3032 3033 3033 3034 3034 3034 3035 3035 3036 3037 3038 3039 3040 3042 3043 3044 3045 3046 3047 3048 3049 3050 3051 3052 3053 3053 3053 3053 3054 3055 3056 3057 3059 3060 3062 3064 3065
2995 2996 2997 2997 2998 2998 2999 2999 3000 3000 3001 3002 3003 3003 3004 3005 3006 3007 3007 3008 3009 3010 3010 3011 3012 3014 3015 3016 3017 3018 3019 3020 3020 3022 3023 3024 3024 3025 3025 3025 3025 3026 3026 3026 3027 3027 3028 3028 3028 3029 3029 3030 3030 3030 3031 3031 3032 3033 3034 3035 3036 3037 3039 3040 3041 3042 3043 3044 3045 3046 3047 3048 3049 3050 3050 3051 3051 3052 3053 3054 3055 3057 3059 3060 3063 3065
2990 2992 2993 2993 2994 2994 2995 2996 2996 2997 2998 2998 2999 3000 3001 3002 3003 3004 3004 3005 3005 3006 3007 3008 3009 3010 3011 3013 3014 3015 3015 3016 3017 3018 3019 3020 3021 3021 3021 3022 3022 3022 3023 3023 3023 3024 3025 3025 3025 3025 3026 3026 3026 3027 3027 3028 3029 3030 3030 3032 3033 3034 3036 3037 3038 3039 3040 3041 3042 3043 3044 3045 3046 3047 3048 3048 3049 3050 3051 3052 3053 3055 3057 3059 3062 3063
2987 2988 2989 2989 2990 2990 2991 2992 2993 2994 2994 2995 2996 2997 2998 2999 3000 3000 3001 3002 3002 3003 3004 3005 3005 3006 3008 3009 3010 3011 3012 3013 3013 3014 3015 3016 3017 3018 3018 3018 3019 3019 3020 3020 3020 3021 3021 3022 3022 3022 3023 3023 3024 3024 3025 3025 3026 3027 3028 3029 3030 3032 3033 3034 3035 3036 3037 3038 3039 3040 3041 3042 3044 3045 3045 3046 3047 3048 3049 3050 3051 3053 3055 3058 3060 3060
2983 2984 2985 2985 2986 2987 2988 2989 2990 2990 2991 2992 2993 2994 2995 2995 2996 2997 2998 2998 2999 3000 3001 3001 3002 3003 3004 3006 3007 3008 3009 3009 3010 3011 3012 3013 3013 3014 3015 3015 3015 3016 3016 3017 3017 3018 3018 3019 3019 3019 3020 3020 3021 3021 3022 3022 3023 3024 3025 3026 3028 3029 3030 3031 3032 3033 3034 3035 3036 3037 3039 3040 3041 3042 3043 3044 3045 3046 3047 3048 3049 3051 3053 3055 3057 3057
2980 2980 2981 2982 2982 2983 2984 2985 2986 2987 2988 2989 2990 2990 2991 2992 2992 2993 2994 2995 2995 2996 2997 2998 2999 3000 3001 3002 3004 3005 3006 3006 3006 3007 3008 3009 3010 3011 3012 3012 3012 3013 3014 3014 3014 3015 3015 3016 3016 3017 3017 3018 3018 3019 3019 3020 3020 3021 3022 3023 3025 3026 3027 3028 3029 3030 3031 3033 3034 3035 3036 3037 3038 3040 3040 3041 3042 3044 3045 3046 3047 3049 3051 3052 3053 3054
2977 2978 2978 2979 2979 2980 2981 2982 2982 2983 2984 2985 2986 2987 2988 2988 2989 2990 2990 2991 2992 2993 2993 2995 2995 2996 2998 2999 3000 3001 3003 3003 3003 3004 3005 3006 3007 3008 3009 3009 3010 3010 3011 3011 3012 3012 3013 3013 3014 3014 3015 3015 3016 3016 3017 3017 3018 3019 3020 3020 3021 3023 3024 3025 3026 3027 3029 3030 3031 3032 3033 3034 3035 3037 3038 3039 3040 3041 3043 3044 3045 3047 3049 3049 3050 3051
2973 2974 2975 2976 2976 2977 2978 2978 2979 2980 2981 2981 2982 2984 2984 2985 2985 2986 2986 2987 2988 2989 2990 2991 2992 2993 2994 2995 2996 2998 3000 3000 3000 3000 3002 3003 3004 3005 3006 3006 3007 3007 3008 3008 3009 3010 3010 3010 3011 3011 3012 3013 3013 3014 3014 3015 3015 3016 3017 3018 3019 3020 3021 3022 3023 3025 3026 3027 3029 3030 3031 3032 3033 3035 3035 3037 3038 3039 3041 3043 3045 3046 3046 3047 3048 3049
2970 2970 2971 2972 2973 2974 2975 2975 2976 2977 2977 2978 2979 2980 2981 2981 2982 2982 2983 2984 2985 2986 2987 2988 2988 2990 2991 2992 2993 2994 2996 2997 2997 2998 2999 3000 3000 3002 3003 3004 3004 3004 3005 3005 3006 3007 3007 3008 3008 3009 3009 3010 3010 3011 3012 3012 3013 3014 3014 3015 3016 3017 3018 3019 3020 3022 3023 3025 3026 3027 3029 3030 3031 3032 3033 3035 3036 3038 3039 3041 3043 3044 3044 3045 3045 3047
2967 2967 2968 2969 2970 2971 2972 2973 2973 2974 2974 2975 2976 2976 2977 2978 2979 2979 2980 2980 2981 2982 2983 2984 2985 2986 2988 2989 2989 2990 2992 2993 2994 2995 2995 2996 2997 2999 3000 3000 3001 3002 3002 3003 3004 3004 3005 3005 3006 3006 3007 3007 3008 3008 3009 3010 3010 3011 3012 3012 3013 3014 3015 3016 3018 3019 3020 3022 3024 3025 3026 3028 3029 3030 3031 3033 3035 3037 3039 3040 3040 3041 3042 3043 3043 3045
2963 2964 2964 2965 2966 2966 2967 2969 2970 2971 2971 2972 2972 2973 2974 2975 2975 2975 2976 2977 2978 2979 2980 2981 2982 2983 2984 2985 2985 2987 2989 2990 2990 2991 2992 2993 2994 2995 2997 2998 2998 2999 3000 3000 3001 3002 3002 3003 3003 3004 3004 3005 3005 3006 3006 3007 3008 3008 3009 3010 3010 3011 3013 3014 3015 3017 3018 3020 3021 3023 3024 3025 3027 3028 3030 3032 3034 3035 3036 3037 3038 3039 3039 3040 3041 3042
2958 2959 2960 2961 2962 2962 2963 2964 2965 2967 2968 2969 2969 2969 2970 2971 2972 2972 2973 2974 2975 2975 2976 2977 2978 2979 2980 2981 2982 2983 2985 2986 2987 2988 2989 2990 2991 2993 2994 2995 2995 2996 2997 2998 2998 2999 3000 3000 3001 3001 3001 3002 3002 3003 3004 3005 3005 3006 3007 3007 3008 3009 3010 3011 3013 3014 3016 3018 3019 3021 3022 3023 3024 3026 3028 3030 3032 3033 3034 3035 3035 3036 3037 3038 3039 3040
2951 2953 2954 2956 2958 2959 2960 2960 2960 2961 2963 2964 2965 2966 2966 2967 2968 2968 2969 2970 2971 2971 2972 2973 2974 2975 2976 2977 2979 2980 2981 2983 2984 2985 2985 2987 2988 2990 2991 2992 2992 2993 2994 2995 2996 2996 2997 2998 2998 2999 2999 2999 3000 3000 3001 3002 3003 3004 3004 3005 3006 3007 3008 3009 3010 3012 3014 3015 3017 3019 3021 3022 3022 3024 3026 3028 3029 3030 3031 3032 3033 3034 3035 3035 3036 3038
2947 2947 2948 2950 2951 2953 2955 2956 2957 2958 2958 2959 2960 2961 2963 2964 2964 2965 2965 2966 2967 2968 2969 2970 2970 2971 2972 2974 2975 2976 2977 2979 2980 2981 2982 2984 2985 2987 2988 2989 2989 2990 2991 2992 2993 2994 2995 2995 2995 2996 2996 2997 2997 2998 2998 2999 3000 3001 3002 3003 3004 3005 3006 3007 3009 3010 3012 3013 3015 3017 3019 3020 3021 3022 3024 3025 3026 3028 3029 3030 3030 3031 3032 3033 3034 3036
2943 2944 2944 2945 2946 2948 2949 2951 2952 2954 2955 2955 2955 2956 2958 2959 2960 2961 2961 2962 2963 2964 2965 2966 2966 2967 2968 2970 2971 2972 2974 2975 2977 2978 2979 2980 2982 2983 2984 2985 2986 2987 2988 2989 2990 2991 2991 2992 2993 2994 2994 2994 2994 2995 2995 2996 2997 2999 3000 3000 3001 3003 3004 3005 3006 3008 3009 3011 3013 3014 3016 3018 3019 3020 3021 3023 3024 3025 3026 3027 3028 3029 3030 3031 3032 3034
2939 2940 2941 2942 2943 2944 2945 2945 2947 2949 2950 2951 2952 2953 2954 2955 2955 2956 2957 2958 2959 2960 2961 2962 2962 2963 2965 2966 2967 2969 2970 2972 2973 2974 2975 2977 2978 2980 2981 2982 2983 2984 2985 2986 2987 2988 2989 2989 2990 2991 2991 2991 2992 2992 2993 2994 2995 2996 2997 2998 2999 3000 3001 3003 3004 3005 3007 3008 3010 3011 3013 3015 3016 3018 3019 3020 3022 3023 3024 3025 3026 3027 3028 3029 3030 3031
2935 2935 2936 2938 2939 2940 2941 2942 2943 2944 2945 2946 2947 2948 2950 2950 2951 2951 2952 2953 2955 2956 2957 2958 2959 2960 2961 2962 2964 2965 2967 2968 2969 2970 2972 2974 2975 2976 2977 2979 2980 2980 2982 2983 2984 2985 2986 2986 2987 2988 2989 2989 2989 2990 2990 2991 2992 2993 2994 2995 2997 2998 2999 3000 3002 3003 3005 3005 3007 3009 3011 3013 3014 3015 3017 3018 3020 3020 3022 3023 3024 3025 3025 3027 3028 3030
2930 2931 2932 2933 2934 2935 2936 2937 2939 2940 2940 2941 2942 2944 2945 2945 2946 2946 2947 2949 2951 2952 2952 2953 2955 2956 2957 2959 2960 2962 2963 2965 2966 2967 2969 2970 2971 2972 2974 2975 2976 2977 2979 2980 2981 2981 2982 2983 2984 2985 2986 2986 2987 2987 2988 2989 2990 2991 2992 2993 2994 2995 2997 2998 3000 3001 3003 3004 3005 3006 3008 3010 3012 3013 3015 3016 3017 3018 3019 3020 3021 3022 3023 3025 3026 3028
2924 2925 2926 2927 2928 2930 2931 2932 2934 2935 2936 2937 2938 2939 2940 2941 2941 2942 2943 2945 2946 2947 2948 2949 2950 2952 2953 2955 2956 2957 2959 2960 2963 2965 2966 2967 2967 2969 2971 2973 2973 2974 2976 2977 2978 2978 2979 2980 2981 2982 2983 2984 2984 2985 2985 2986 2987 2989 2990 2991 2992 2994 2995 2996 2998 3000 3001 3002 3003 3004 3006 3008 3009 3010 3012 3013 3015 3016 3017 3018 3019 3020 3021 3023 3024 3026
2918 2919 2920 2921 2923 2924 2925 2927 2928 2930 2931 2932 2934 2935 2935 2936 2937 2939 2940 2941 2942 2943 2944 2945 2946 2948 2949 2950 2951 2952 2954 2957 2960 2962 2963 2964 2964 2966 2968 2970 2970 2971 2973 2974 2974 2975 2976 2977 2978 2980 2980 2981 2982 2982 2983 2984 2985 2985 2987 2988 2990 2991 2992 2994 2995 2997 2998 3000 3000 3002 3004 3005 3006 3008 3010 3011 3012 3013 3015 3015 3016 3018 3019 3021 3022 3024
2913 2914 2915 2916 2917 2919 2920 2921 2923 2924 2925 2927 2928 2929 2930 2932 2933 2935 2936 2937 2938 2939 2940 2941 2942 2944 2945 2946 2947 2948 2950 2953 2956 2959 2960 2960 2961 2962 2965 2966 2967 2968 2970 2970 2971 2972 2973 2974 2975 2976 2977 2978 2979 2980 2981 2982 2982 2983 2984 2985 2987 2988 2990 2991 2993 2994 2996 2997 2999 3000 3001 3003 3004 3005 3007 3008 3010 3011 3012 3013 3014 3015 3017 3019 3020 3022
2907 2909 2910 2910 2912 2914 2915 2916 2917 2918 2920 2921 2923 2924 2925 2927 2928 2930 2931 2932 2934 2935 2936 2937 2939 2940 2941 2942 2943 2945 2947 2950 2952 2955 2956 2957 2957 2959 2961 2963 2964 2965 2966 2967 2968 2969 2970 2971 2972 2973 2974 2975 2976 2978 2979 2980 2980 2980 2981 2982 2984 2985 2987 2989 2990 2991 2993 2995 2996 2998 2999 3000 3001 3003 3004 3005 3007 3008 3010 3011 3012 3014 3015 3017 3019 3020
2901 2903 2904 2905 2907 2908 2910 2911 2912 2913 2915 2916 2917 2919 2920 2922 2923 2925 2926 2927 2929 2930 2931 2933 2934 2936 2937 2938 2940 2941 2943 2945 2948 2950 2953 2953 2954 2955 2957 2959 2960 2962 2963 2964 2965 2965 2966 2967 2969 2970 2971 2972 2973 2975 2976 2977 2978 2978 2979 2980 2981 2982 2984 2985 2987 2988 2990 2991 2993 2995 2996 2998 2999 3000 3002 3003 3005 3006 3007 3008 3010 3011 3013 3015 3017 3018
2895 2897 2898 2900 2901 2903 2904 2905 2907 2908 2910 2911 2912 2914 2915 2917 2918 2920 2921 2923 2924 2926 2927 2929 2930 2931 2933 2935 2936 2937 2939 2941 2943 2946 2949 2950 2950 2951 2953 2955 2957 2958 2960 2961 2961 2962 2963 2964 2965 2967 2968 2969 2970 2971 2973 2974 2975 2975 2976 2977 2978 2979 2980 2982 2984 2985 2987 2989 2990 2992 2993 2995 2996 2998 2999 3001 3002 3003 3005 3006 3008 3009 3011 3013 3014 3016
2889 2891 2892 2894 2895 2897 2898 2900 2901 2903 2905 2906 2907 2909 2910 2912 2914 2915 2917 2918 2920 2921 2922 2924 2926 2927 2929 2930 2932 2934 2935 2937 2939 2942 2944 2945 2946 2948 2949 2951 2952 2955 2956 2957 2958 2959 2960 2961 2962 2963 2964 2965 2966 2967 2969 2970 2972 2973 2974 2975 2975 2977 2978 2979 2980 2982 2984 2986 2988 2989 2990 2992 2994 2995 2997 2998 3000 3001 3002 3004 3005 3007 3009 3010 3012 3014
2883 2885 2886 2888 2890 2891 2892 2894 2896 2898 2900 2901 2902 2904 2905 2907 2909 2910 2912 2913 2915 2916 2918 2919 2921 2923 2925 2927 2929 2930 2931 2933 2935 2937 2940 2941 2942 2944 2945 2946 2948 2950 2952 2954 2954 2955 2956 2957 2958 2960 2960 2961 2962 2963 2965 2966 2968 2970 2971 2972 2973 2974 2975 2976 2978 2979 2981 2983 2985 2986 2988 2990 2991 2993 2995 2996 2997 2999 3000 3001 3003 3005 3006 3008 3010 3011
2878 2879 2880 2882 2884 2885 2887 2888 2890 2892 2894 2895 2897 2898 2900 2901 2903 2905 2906 2908 2910 2911 2913 2915 2916 2919 2921 2923 2925 2926 2928 2929 2930 2932 2935 2936 2938 2940 2941 2942 2944 2947 2949 2950 2950 2951 2952 2953 2954 2955 2956 2958 2959 2960 2961 2963 2965 2966 2967 2968 2970 2970 2972 2973 2975 2976 2978 2980 2982 2984 2985 2987 2988 2990 2992 2993 2995 2996 2997 2998 3000 3002 3004 3005 3007 3009
2873 2874 2875 2876 2878 2879 2881 2882 2884 2886 2887 2889 2891 2892 2894 2896 2897 2899 2901 2903 2905 2906 2908 2910 2911 2914 2916 2918 2920 2922 2924 2924 2925 2927 2930 2932 2934 2935 2937 2938 2940 2943 2945 2946 2947 2947 2948 2949 2950 2951 2953 2954 2956 2957 2958 2960 2961 2962 2964 2965 2967 2968 2969 2970 2971 2973 2975 2977 2979 2981 2982 2984 2985 2987 2989 2990 2991 2993 2994 2995 2997 2999 3001 3003 3004 3006
2869 2869 2870 2871 2872 2873 2875 2876 2878 2879 2881 2883 2885 2886 2888 2890 2892 2894 2895 2897 2899 2901 2903 2905 2907 2909 2911 2913 2915 2917 2919 2920 2921 2923 2925 2928 2930 2931 2933 2935 2936 2939 2941 2943 2943 2943 2944 2945 2947 2948 2950 2951 2952 2953 2955 2956 2957 2959 2960 2962 2963 2964 2965 2966 2968 2970 2972 2974 2976 2978 2979 2981 2982 2984 2986 2987 2989 2990 2992 2993 2995 2997 2999 3000 3002 3004
2865 2865 2866 2866 2867 2868 2870 2870 2871 2873 2875 2877 2878 2880 2882 2884 2886 2888 2890 2892 2894 2896 2898 2900 2902 2904 2906 2908 2910 2912 2914 2915 2917 2919 2921 2923 2925 2927 2929 2930 2932 2935 2937 2939 2939 2940 2940 2942 2943 2945 2946 2947 2948 2950 2951 2952 2954 2955 2956 2957 2959 2960 2961 2963 2965 2966 2969 2970 2973 2975 2976 2978 2980 2981 2983 2985 2987 2988 2990 2991 2993 2995 2997 2998 3000 3002
2861 2861 2862 2862 2863 2864 2865 2865 2866 2867 2869 2871 2872 2874 2876 2878 2880 2883 2885 2886 2888 2890 2893 2895 2897 2899 2900 2903 2905 2907 2909 2911 2912 2914 2917 2919 2921 2923 2925 2926 2928 2930 2932 2934 2935 2936 2937 2938 2940 2941 2942 2943 2945 2946 2947 2949 2950 2951 2953 2954 2956 2958 2960 2960 2962 2963 2965 2967 2970 2971 2973 2975 2977 2979 2981 2983 2984 2986 2987 2989 2990 2992 2994 2995 2997 2999
2857 2857 2858 2859 2859 2860 2860 2861 2862 2863 2864 2865 2866 2868 2870 2872 2874 2877 2879 2880 2882 2884 2887 2890 2891 2893 2895 2897 2899 2902 2904 2906 2908 2910 2912 2915 2917 2918 2920 2922 2924 2925 2928 2930 2931 2932 2933 2935 2936 2937 2938 2939 2941 2942 2943 2945 2946 2948 2949 2951 2952 2954 2955 2956 2957 2960 2962 2964 2966 2968 2970 2972 2974 2976 2978 2980 2981 2983 2985 2986 2988 2990 2991 2993 2995 2997
2853 2853 2854 2855 2855 2856 2857 2857 2858 2858 2859 2860 2861 2862 2864 2866 2869 2871 2873 2875 2876 2878 2881 2884 2886 2888 2890 2892 2894 2896 2899 2901 2904 2905 2908 2910 2912 2914 2915 2917 2919 2921 2923 2925 2926 2928 2930 2931 2932 2933 2934 2935 2937 2938 2940 2941 2942 2943 2945 2946 2948 2949 2950 2951 2953 2955 2958 2960 2963 2965 2966 2969 2971 2973 2975 2977 2979 2980 2981 2983 2985 2987 2989 2990 2992 2994
2850 2850 2850 2851 2851 2852 2853 2854 2854 2854 2855 2855 2856 2858 2859 2860 2862 2865 2866 2869 2871 2873 2875 2878 2880 2883 2884 2886 2888 2891 2894 2896 2899 2901 2903 2905 2907 2909 2911 2912 2914 2916 2918 2920 2922 2923 2925 2926 2928 2929 2930 2931 2932 2934 2935 2937 2938 2940 2941 2943 2944 2946 2948 2950 2951 2953 2955 2957 2959 2961 2963 2965 2968 2970 2972 2974 2975 2977 2979 2980 2982 2984 2986 2988 2990 2991
2847 2847 2847 2847 2848 2849 2849 2850 2850 2851 2851 2852 2853 2854 2855 2856 2857 2859 2860 2862 2865 2867 2870 2872 2874 2876 2878 2880 2882 2886 2889 2891 2893 2895 2898 2900 2903 2905 2906 2908 2910 2912 2914 2916 2918 2920 2921 2922 2923 2925 2926 2927 2928 2930 2931 2933 2934 2936 2937 2939 2941 2943 2945 2947 2948 2950 2951 2953 2956 2958 2960 2962 2965 2967 2969 2971 2973 2975 2976 2978 2980 2982 2984 2985 2987 2989
2845 2845 2845 2845 2845 2845 2845 2846 2847 2847 2848 2848 2849 2850 2851 2853 2854 2854 2855 2856 2859 2861 2864 2866 2869 2870 2872 2874 2877 2880 2883 2885 2888 2890 2893 2895 2898 2900 2902 2904 2905 2907 2910 2912 2914 2916 2917 2918 2919 2920 2921 2922 2924 2925 2927 2929 2930 2931 2933 2935 2936 2938 2940 2941 2944 2946 2948 2950 2952 2955 2957 2959 2962 2964 2966 2968 2970 2972 2974 2975 2977 2979 2981 2983 2985 2987
2843 2843 2842 2842 2842 2842 2842 2843 2843 2844 2845 2845 2845 2846 2847 2849 2851 2852 2851 2852 2853 2855 2858 2860 2863 2865 2866 2869 2872 2875 2878 2880 2883 2885 2888 2890 2893 2895 2897 2900 2901 2904 2906 2908 2910 2912 2913 2914 2915 2915 2916 2918 2919 2921 2923 2924 2926 2927 2929 2930 2932 2934 2935 2937 2940 2943 2945 2947 2949 2951 2954 2956 2959 2961 2963 2965 2967 2969 2971 2973 2975 2976 2978 2980 2982 2985
2841 2841 2840 2840 2840 2840 2840 2840 2840 2841 2841 2841 2842 2842 2843 2844 2846 2849 2850 2850 2850 2851 2852 2854 2856 2859 2861 2864 2866 2870 2873 2875 2878 2880 2883 2885 2888 2891 2893 2895 2897 2899 2902 2904 2906 2907 2909 2910 2910 2911 2912 2914 2915 2917 2919 2920 2922 2924 2925 2927 2928 2930 2931 2934 2937 2940 2942 2944 2946 2948 2951 2954 2956 2959 2961 2963 2965 2966 2968 2970 2972 2974 2976 2978 2980 2982
2839 2839 2838 2837 2837 2837 2837 2837 2837 2838 2838 2838 2838 2839 2839 2840 2840 2842 2844 2846 2847 2848 2849 2850 2851 2853 2855 2858 2861 2864 2867 2870 2872 2875 2878 2880 2883 2886 2889 2890 2892 2895 2897 2899 2900 2902 2904 2905 2905 2906 2908 2910 2911 2913 2914 2916 2918 2920 2921 2922 2924 2925 2927 2930 2933 2936 2938 2940 2943 2945 2948 2951 2954 2956 2958 2960 2961 2963 2965 2967 2969 2971 2973 2975 2977 2980
2837 2836 2835 2835 2835 2834 2834 2834 2835 2835 2835 2835 2835 2835 2836 2836 2837 2838 2839 2840 2841 2843 2845 2846 2848 2849 2850 2853 2855 2858 2861 2864 2866 2869 2872 2875 2878 2881 2884 2885 2887 2890 2892 2894 2895 2897 2898 2900 2900 2902 2903 2905 2907 2909 2910 2912 2914 2915 2917 2918 2920 2921 2923 2925 2929 2932 2935 2938 2940 2942 2945 2948 2950 2952 2954 2956 2958 2960 2962 2964 2966 2968 2970 2973 2975 2977